#timestamp,LO_Frequency,Hit,StdDev 
1608174015.1,286047005.1,P
1608174035.9,286047002.8,N
1608174055.7,286047001.4,N
1608174075.5,286047005.0,Y
1608174095.4,286046999.1,P
1608174115.2,286047000.7,N
1608174135.1,286046998.4,N
1608174136.0,286046998.4,N
1608174155.8,286046997.5,N
1608174175.6,286046999.4,N
1608174195.5,286046997.7,N
1608174215.3,286046997.5,N
1608174235.1,286047002.2,N
1608174255.9,286046999.8,N
1608174275.7,286046999.9,N
1608174295.6,286047001.8,N
1608174315.4,286046999.0,N
1608174335.2,286046995.6,N
1608174355.1,286046996.0,N
1608174356.0,286046996.0,N
1608174375.8,286046992.0,Y
1608174395.7,286046995.1,P
1608174415.5,286046999.1,N
1608174435.3,286046996.6,N
1608174455.2,286046998.3,N
1608174475.9,286047002.5,N
1608174495.7,286047002.5,N
1608174515.6,286047001.8,N
1608174535.4,286047001.9,N
1608174555.2,286047003.4,N
1608174575.1,286047003.8,N
1608174576.0,286047003.8,N
1608174595.8,286047001.7,N
1608174615.7,286047005.9,N
1608174635.5,286047006.1,N
1608174655.3,286047004.5,N
1608174675.2,286047001.3,N
1608174695.0,286047000.9,N
1608174695.9,286047000.9,N
1608174715.8,286047000.3,N
1608174735.6,286047005.9,N
1608174755.4,286047007.5,N
1608174775.3,286047006.7,N
1608174795.1,286047001.9,N
1608174815.8,286046998.2,N
1608174835.7,286046999.3,N
1608174855.5,286047000.8,N
1608174875.4,286046999.4,N
1608174895.2,286047000.1,N
1608174915.0,286047001.7,N
1608174915.9,286047001.7,N
1608174935.8,286046997.0,N
1608174955.6,286046993.4,N
1608174975.5,286046996.6,N
1608174995.3,286046999.2,N
1608175015.1,286046998.2,N
1608175035.9,286046997.4,N
1608175055.7,286046996.9,N
1608175075.5,286047001.5,N
1608175095.4,286046999.4,N
1608175115.2,286047000.7,N
1608175135.1,286047002.4,N
1608175136.0,286047002.4,N
1608175155.8,286047000.0,N
1608175205.7,286047002.9,E
1608175215.6,286047001.7,N
1608175235.4,286047002.4,P
1608175255.3,286047004.4,P
1608175275.1,286047000.8,N
1608175295.8,286046995.4,Y
1608175315.7,286046994.4,P
1608175335.5,286046997.9,N
1608175355.4,286046997.1,N
1608175375.2,286047000.1,N
1608175395.0,286047000.4,N
1608175395.9,286047000.4,N
1608175415.8,286047001.3,N
1608175435.6,286046999.5,N
1608175455.4,286046996.1,N
1608175475.3,286046998.0,N
1608175495.1,286046999.4,N
1608175515.9,286046995.9,N
1608175535.7,286046992.7,Y
1608175555.5,286046998.8,P
1608175575.4,286046998.7,P
1608175595.2,286046998.6,P
1608175615.1,286046997.4,Y
1608175616.0,286046997.4,P
1608175635.8,286046996.8,P
1608175655.6,286046997.6,P
1608175675.5,286046999.7,N
1608175695.3,286047004.0,Y
1608175715.1,286047004.8,P
1608175735.9,286046999.8,N
1608175755.7,286046999.0,N
1608175775.6,286047002.4,N
1608175795.4,286047003.9,N
1608175815.2,286047003.8,N
1608175835.1,286047000.6,N
1608175836.0,286047000.6,N
1608175855.8,286047000.9,N
1608175875.6,286047004.2,N
1608175895.5,286047002.6,N
1608175915.3,286047002.3,N
1608175935.2,286047005.2,N
1608175955.9,286047004.5,N
1608175975.7,286047005.6,N
1608175995.6,286047009.2,Y
1608176015.4,286047003.3,P
1608176035.3,286047003.5,P
1608176055.1,286047001.4,N
1608176056.0,286047001.4,N
1608176075.8,286047000.9,N
1608176095.7,286046996.5,Y
1608176115.5,286046995.2,P
1608176135.3,286046993.9,N
1608176155.2,286046993.8,N
1608176175.0,286046996.3,N
1608176175.9,286046996.3,N
1608176195.8,286046996.8,N
1608176215.6,286047000.8,N
1608176235.4,286047002.3,N
1608176255.3,286047002.9,N
1608176275.1,286047003.7,N
1608176295.9,286047000.1,N
1608176315.7,286047000.2,N
1608176335.5,286047002.6,N
1608176355.4,286046999.2,N
1608176375.2,286047000.6,N
1608176395.0,286046998.8,N
1608176396.0,286046998.8,N
1608176415.8,286046999.4,N
1608176435.6,286047003.9,N
1608176455.5,286047000.4,N
1608176475.3,286046999.7,N
1608176495.1,286047002.3,N
1608176515.9,286046997.3,N
1608176535.7,286047000.0,N
1608176555.6,286046996.5,N
1608176575.4,286047001.2,N
1608176595.2,286047002.6,N
1608176615.1,286047000.5,N
1608176616.0,286047000.5,N
1608176635.8,286046998.7,N
1608176655.6,286046998.4,N
1608176675.5,286047001.0,N
1608176695.3,286046996.5,N
1608176715.2,286046996.0,N
1608176735.9,286046994.5,N
1608176755.7,286046994.9,N
1608176775.6,286046996.1,N
1608176795.4,286046999.4,N
1608176815.2,286046999.2,N
1608176835.1,286046997.7,N
1608176836.0,286046997.7,N
1608176855.8,286046996.4,N
1608176875.7,286046993.5,N
1608176895.5,286046997.3,N
1608176915.3,286046998.8,N
1608176935.2,286047002.3,N
1608176955.9,286046999.2,N
1608176975.7,286046998.7,N
1608176995.6,286047000.2,N
1608177015.4,286047002.1,N
1608177035.3,286046996.6,N
1608177055.1,286046998.0,N
1608177056.0,286046998.0,N
1608177075.8,286046995.7,N
1608177095.7,286046994.6,N
1608177115.5,286046996.2,N
1608177135.3,286046998.9,N
1608177155.2,286046998.3,N
1608177175.0,286047002.4,N
1608177175.9,286047002.4,N
1608177195.8,286047001.7,N
1608177215.6,286046999.8,N
1608177235.4,286046998.6,N
1608177255.3,286046998.5,N
1608177275.1,286046999.5,N
1608177295.8,286047002.8,N
1608177315.7,286047005.5,N
1608177335.5,286047002.5,N
1608177355.4,286047004.0,N
1608177375.2,286047005.6,N
1608177395.0,286047007.0,N
1608177395.9,286047007.0,N
1608177415.8,286047003.0,N
1608177435.6,286047005.9,N
1608177455.5,286047005.1,N
1608177475.3,286047004.5,N
1608177495.1,286046999.9,N
1608177515.9,286046999.2,N
1608177535.7,286047000.1,N
1608177555.5,286047001.5,N
1608177575.4,286047000.5,N
1608177595.2,286047002.7,N
